This demonstration page uses our WeatherBlox Daily Observations layout. Learn more.

Left ArrowRight Arrow

Hourly Observations for September 24, 2022

Temp ( °F °C ) Dew Point ( °F °C ) Humidity (%) Winds ( mph kmh ) Pressure ( in mb ) Visibility ( mi km ) Precip ( " mm )
12:53 am 00:53 Clear 57 13.9 53 11.7 87 87 Calm 29.96 1015 10 16 0.00 0.00
1:53 am 01:53 Clear 57 13.9 53 11.7 87 87 SW 3 6 29.97 1015 10 16 0.00 0.00
2:53 am 02:53 Clear 55 12.8 52 11.1 89 89 WSW 5 7 29.97 1015 10 16 0.00 0.00
3:53 am 03:53 Clear 55 12.8 50 10 83 83 W 5 7 29.97 1015 10 16 0.00 0.00
4:53 am 04:53 Clear 55 12.8 47 8.3 74 74 SSW 5 7 29.97 1015 10 16 0.00 0.00
5:53 am 05:53 Clear 53 11.7 46 7.8 77 77 W 7 11 29.98 1015 10 16 0.00 0.00
6:53 am 06:53 Clear 53 11.7 45 7.2 74 74 W 6 9 29.98 1015 10 16 0.00 0.00
7:53 am 07:53 Sunny 53 11.7 45 7.2 74 74 W 6 9 30.00 1016 10 16 0.00 0.00
8:53 am 08:53 Sunny 61 16.1 48 8.9 62 62 VRB 5 7 30.00 1016 10 16 0.00 0.00
9:53 am 09:53 Sunny 69 20.6 46 7.8 44 44 W 9 15 30.00 1016 10 16 0.00 0.00
10:53 am 10:53 Sunny 76 24.4 46 7.8 35 35 WNW 9 15 30.00 1016 10 16 0.00 0.00
11:53 am 11:53 Sunny 79 26.1 46 7.8 31 31 WNW 9 15 30.00 1016 10 16 0.00 0.00
12:53 pm 12:53 Sunny 82 27.8 40 4.4 22 22 W 5 7 29.98 1015 10 16 0.00 0.00
1:53 pm 13:53 Sunny 84 28.9 39 3.9 20 20 WNW 8 13 29.95 1014 10 16 0.00 0.00
2:53 pm 14:53 Sunny 85 29.4 41 5 21 21 undefined N/A 29.93 1014 10 16 0.00 0.00
3:53 pm 15:53 Sunny 86 30 41 5 21 21 NNW 9 15 29.92 1013 10 16 0.00 0.00
4:53 pm 16:53 Sunny 86 30 42 5.6 21 21 WNW 5 7 29.91 1013 10 16 0.00 0.00
5:53 pm 17:53 Sunny 85 29.4 42 5.6 22 22 W 7 11 29.91 1013 10 16 0.00 0.00
6:53 pm 18:53 Mostly Sunny 80 26.7 46 7.8 30 30 W 6 9 29.91 1013 10 16 0.00 0.00
7:53 pm 19:53 Clear 73 22.8 43 6.1 34 34 N 8 13 29.96 1014 10 16 0.00 0.00
8:53 pm 20:53 Clear 67 19.4 44 6.7 44 44 N 8 13 30.00 1016 10 16 0.00 0.00
9:53 pm 21:53 Clear 65 18.3 44 6.7 47 47 N 8 13 30.03 1017 10 16 0.00 0.00
10:53 pm 22:53 Clear 60 15.6 45 7.2 57 57 N 5 7 30.04 1017 10 16 0.00 0.00
11:53 pm 23:53 Clear 57 13.9 46 7.8 67 67 NNW 6 9 30.05 1018 10 16 0.00 0.00

Powered by AerisWeather